Zurück zum Katalog

STARLINK-35909

AktivKommunikationVLEO
NORAD 66496·PAYLOAD·🇺🇸 United States

Gestartet Nov 15, 2025 von Cape Canaveral Space Force Station

Loading…

Nächste Überflüge (nächste 24 Stunden)

TLE

AktuellSource: CelesTrak SupGP

Epoche: Sep 14, 2026, 22:46 UTC

1 66496C 25263M   26257.94909722 -.00017588  00000+0 -63710-3 0  2570
2 66496  43.0027   2.0693 0001688 268.6583   5.0467 15.27583262    14

Verfolge STARLINK-35909 in Echtzeit mit AllMySat

Download on the App Store